STARLINK-2006 (47601 NORAD) Tracking and Keplerian Element Data
This shows tracking and keplerian element data for the satellite.
Feedback or suggestion? Click here.
Element | Value |
Catalog | 47601 |
Name | STARLINK-2006 |
Epoch Orbit | 182 |
Epoch Day | 55.91668981 |
Epoch Year | 2021 |
RAAN | 22.4922 |
Inclination | 53.0489 |
Eccentricity | 0.0001275 |
Argument of Perigee | 61.4215 |
Mean Anonmoly | 95.059 |
Mean Motion | 15.62748422 |
Decay Rate | -3.03E-06 |
L1 | 1 47601U 21009BF 21055.91668981 -.00000303 00000-0 25274-5 0 9993 |
L2 | 2 47601 53.0489 22.4922 0001275 61.4215 95.0590 15.62748422 1824 |
Live tracking and technical data element details for STARLINK-2006 (NORAD 47601). STARLINK-2006 can be tracked NOW for your location showing map with azimuth and elevation plus other details from your city location.
Track the satellite on the map from your city or location and see movement details for azimuth, elevation, latitude, longitude, range, height, and movement on the map or in text.
IsCatalogInMostPopularTable: catalog: 47601, numindb: 1
Update: records affected: 1
GetName: 47601 STARLINK-2006
Hit Count: updated at: Thu, 25 Feb 2021 19:28:04 GMT